Weather in derevnya Nadvoitsy

Russia / Republic of Karelia     63°52′29″N   34°19′27″E
temp.,
°C
wind,
m/s
gust,
m/s
humid.,
%
clouds,
%
prec.,
mm/h
press.,
hPa
HPBL,
m
3 august, tue
tue300:00+14e3584100 0.0 100083
03:00+14e2590100 0.4 998140
06:00+14ene61395100 6.0 992567
09:00+15ese61297100 11.2 988627
12:00+16se51199100 6.1 986492
15:00+15sw71294100 10.5 987691
18:00+14sw9159089 0.6 9901035
21:00+13sw71191100 0.6 993882
4 august, wed
wed400:00+11sw61090100 0.2 995884
03:00+10wsw71191100 1.1 997868
06:00+9wsw71390100 1.3 9981429
09:00+9wsw91588100 2.4 10011436
12:00+9w91486100 0.4 10041423
15:00+9w81486100 0.9 10081318
18:00+10w71482100 0.6 10111387
21:00+11wsw41175100 0.6 1012564
5 august, thu
thu500:00+10wsw41178100 0.0 1013304
03:00+9w388399 0.0 1015204
06:00+10w2480100 0.0 1016106
09:00+15wnw2356100 0.0 1018476
12:00+18sse1244100 0.0 10181433
15:00+17se3348100 0.0 1018569
18:00+17ese334786 0.0 1019389
21:00+14sse345883 0.0 101966
6 august, fri
fri600:00+13sse356883 0.0 102093
03:00+13s2271100 0.0 102027
06:00+13sse227272 0.0 102147
09:00+16se235626 0.0 1021397
12:00+18ese434930 0.0 10211009
15:00+19ese32389 0.0 10201472
18:00+18e22386 0.0 1020601
21:00+14e22669 0.0 102015
7 august, sat
sat700:00+13ese33735 0.0 102137
03:00+11se22815 0.0 102133
06:00+12ese23775 0.0 102177
09:00+15ese34570 0.0 1021340
12:00+18se24440 0.0 10211032
15:00+20e244048 0.0 10201505
18:00+19ene4647100 0.0 1019678
21:00+15ene41162100 0.0 1019289